KK4XZ Weather Reports


Display with metric or nautical units.
time (UTC)temp
F
wind
direction
speed
MPH
gust
MPH
rain 1hr
in
rain 24hr
in
rain mn
in
humidity
%
barometer
mb
20260901063529 75 132 9.0 10.0 0.00 0.00 0.00 97 1017.8
20260901062524 75 131 9.0 10.0 0.00 0.00 0.00 97 1018.0
20260901061519 75 131 9.0 10.0 0.00 0.00 0.00 97 1018.2
20260901060534 75 130 8.0 10.0 0.00 0.00 0.00 97 1018.1
20260901055529 75 131 9.0 9.0 0.00 0.00 0.00 97 1018.3
20260901054524 75 133 9.0 10.0 0.00 0.00 0.00 97 1018.3
20260901053520 75 131 9.0 10.0 0.00 0.00 0.00 97 1018.4
20260901052535 75 131 9.0 10.0 0.00 0.00 0.00 97 1018.4
20260901051530 76 133 9.0 10.0 0.00 0.00 0.00 97 1018.6
20260901050525 76 131 8.0 9.0 0.00 0.00 0.00 96 1018.6
20260901045520 76 131 9.0 10.0 0.00 0.00 0.00 96 1018.5
20260901044535 76 133 9.0 10.0 0.00 0.00 0.00 96 1018.5
20260901043531 76 131 9.0 10.0 0.00 0.00 0.00 96 1018.6
20260901042526 76 133 8.0 10.0 0.00 0.00 0.00 96 1018.6
20260901041521 76 131 8.0 10.0 0.00 0.00 0.00 96 1018.6
20260901040536 76 131 8.0 9.0 0.00 0.00 0.00 95 1018.6
20260901035530 76 133 9.0 10.0 0.00 0.00 0.00 95 1018.7
20260901034526 77 133 8.0 9.0 0.00 0.00 0.00 95 1018.6
20260901033521 77 131 8.0 9.0 0.00 0.00 0.00 95 1018.5
20260901032536 77 131 8.0 9.0 0.00 0.00 0.00 94 1018.5
20260901031531 77 131 8.0 9.0 0.00 0.00 0.00 94 1018.5
20260901030526 77 132 8.0 10.0 0.00 0.00 0.00 93 1018.5
20260901025521 77 132 8.0 10.0 0.00 0.00 0.00 93 1018.6
20260901024517 78 132 8.0 9.0 0.00 0.00 0.00 93 1018.8
20260901023532 78 132 8.0 9.0 0.00 0.00 0.00 92 1018.8
20260901022527 78 133 8.0 9.0 0.00 0.00 0.00 92 1018.8
20260901021522 79 135 8.0 9.0 0.00 0.00 0.00 91 1018.8
20260901020517 79 134 8.0 9.0 0.00 0.00 0.00 89 1018.7
20260901015532 80 134 8.0 9.0 0.00 0.00 0.00 88 1018.5
20260901014528 80 139 9.0 10.0 0.00 0.00 0.00 87 1018.4
20260901013523 80 141 9.0 10.0 0.00 0.00 0.00 87 1018.3
20260901012518 80 135 9.0 10.0 0.00 0.00 0.00 87 1018.3
20260901011533 80 135 9.0 10.0 0.00 0.00 0.00 86 1018.2
20260901010529 80 137 8.0 9.0 0.00 0.00 0.00 86 1018.3
20260901005524 81 139 8.0 10.0 0.00 0.00 0.00 85 1018.1
20260901004519 80 140 8.0 10.0 0.00 0.00 0.00 85 1017.9
20260901003534 81 139 8.0 10.0 0.00 0.00 0.00 85 1018.0
20260901002529 80 141 8.0 10.0 0.00 0.00 0.00 86 1018.0
20260901001525 80 140 8.0 10.0 0.00 0.00 0.00 87 1018.0
20260901000519 80 135 9.0 10.0 0.00 0.00 0.00 86 1017.9
20260831235535 81 135 9.0 10.0 0.00 0.00 0.00 86 1017.8
20260831234530 81 134 9.0 10.0 0.00 0.00 0.00 85 1017.9
20260831233525 81 142 8.0 10.0 0.00 0.00 0.00 83 1017.8
20260831232520 82 139 8.0 9.0 0.00 0.00 0.00 83 1017.8
20260831231535 82 137 8.0 10.0 0.00 0.00 0.00 81 1018.0
20260831230530 82 136 9.0 11.0 0.00 0.00 0.00 80 1018.0
20260831225525 82 144 8.0 11.0 0.00 0.00 0.00 79 1018.1
20260831224520 82 145 8.0 9.0 0.00 0.00 0.00 80 1018.1
20260831223535 83 140 8.0 9.0 0.00 0.00 0.00 80 1018.0
20260831222530 83 141 8.0 10.0 0.00 0.00 0.00 80 1017.9
20260831221526 83 140 8.0 10.0 0.00 0.00 0.00 80 1018.0
20260831220521 83 139 8.0 10.0 0.00 0.00 0.00 81 1017.9
20260831215516 84 138 8.0 10.0 0.00 0.00 0.00 80 1017.8
20260831214531 84 140 8.0 11.0 0.00 0.00 0.00 79 1017.8
20260831213527 84 147 8.0 10.0 0.00 0.00 0.00 76 1017.9
20260831212522 84 152 7.0 11.0 0.00 0.00 0.00 77 1017.7
20260831211517 85 147 8.0 10.0 0.00 0.00 0.00 77 1017.8
20260831210532 85 143 8.0 10.0 0.00 0.00 0.00 76 1017.8
20260831205527 85 137 8.0 10.0 0.00 0.00 0.00 77 1017.7
20260831204523 84 145 7.0 10.0 0.00 0.00 0.00 76 1017.6
20260831203518 84 145 8.0 10.0 0.00 0.00 0.00 76 1017.7
20260831202533 84 142 8.0 10.0 0.00 0.00 0.00 77 1017.9
20260831201528 84 148 7.0 9.0 0.00 0.00 0.00 76 1017.8
20260831200523 85 188 5.0 7.0 0.00 0.00 0.00 76 1017.9
20260831195518 85 190 5.0 7.0 0.00 0.00 0.00 75 1017.9
20260831194533 86 147 8.0 10.0 0.00 0.00 0.00 75 1018.0
20260831193528 87 150 8.0 11.0 0.00 0.00 0.00 73 1018.1
20260831192522 87 159 6.0 9.0 0.00 0.00 0.00 72 1018.2
20260831191518 88 147 8.0 10.0 0.00 0.00 0.00 70 1018.4
20260831190533 87 141 9.0 11.0 0.00 0.00 0.00 72 1018.3
20260831185528 88 161 6.0 9.0 0.00 0.00 0.00 70 1018.6
20260831184523 87 158 7.0 10.0 0.00 0.00 0.00 71 1018.6
20260831183518 87 145 7.0 10.0 0.00 0.00 0.00 70 1018.7
20260831182534 88 148 8.0 11.0 0.00 0.00 0.00 71 1018.8
20260831181528 87 163 7.0 10.0 0.00 0.00 0.00 72 1019.1
20260831180523 88 138 8.0 11.0 0.00 0.00 0.00 72 1019.2
20260831175518 86 155 7.0 10.0 0.00 0.00 0.00 75 1019.5
20260831174534 87 160 7.0 11.0 0.00 0.00 0.00 74 1019.4
20260831173529 87 129 6.0 11.0 0.00 0.00 0.00 74 1019.4
20260831172524 87 128 4.0 7.0 0.00 0.00 0.00 74 1019.5
20260831171519 86 127 4.0 6.0 0.00 0.00 0.00 74 1019.7
20260831170534 88 150 3.0 6.0 0.00 0.00 0.00 71 1019.5
20260831165530 88 111 4.0 6.0 0.00 0.00 0.00 71 1019.5
20260831164525 87 126 4.0 6.0 0.00 0.00 0.00 72 1019.6
20260831163520 88 140 4.0 9.0 0.00 0.00 0.00 69 1019.6
20260831162535 90 107 5.0 9.0 0.00 0.00 0.00 65 1019.8
20260831161530 90 107 3.0 6.0 0.00 0.00 0.00 63 1019.9
20260831160526 88 116 4.0 8.0 0.00 0.00 0.00 66 1019.8
20260831155521 88 146 7.0 9.0 0.00 0.00 0.00 67 1019.9
20260831154516 87 93 4.0 5.0 0.00 0.00 0.00 70 1019.9
20260831153531 87 132 7.0 10.0 0.00 0.00 0.00 69 1019.8
20260831152527 86 140 7.0 9.0 0.00 0.00 0.00 71 1019.8
20260831151522 87 136 8.0 10.0 0.00 0.00 0.00 71 1019.7
20260831150517 85 168 4.0 6.0 0.00 0.00 0.00 74 1019.6
20260831145532 85 177 3.0 4.0 0.00 0.00 0.00 76 1019.5
20260831144527 85 141 6.0 8.0 0.00 0.00 0.00 76 1019.5
20260831143522 84 135 7.0 9.0 0.00 0.00 0.00 77 1019.5
20260831142517 83 134 8.0 10.0 0.00 0.00 0.00 80 1019.5
20260831141533 82 135 8.0 10.0 0.00 0.00 0.00 82 1019.5
20260831140528 82 129 7.0 9.0 0.00 0.00 0.00 83 1019.5
20260831135523 81 124 7.0 9.0 0.00 0.00 0.00 83 1019.5
20260831134518 81 133 8.0 10.0 0.00 0.00 0.00 85 1019.4
20260831133533 80 136 8.0 10.0 0.00 0.00 0.00 88 1019.2
20260831132529 79 128 8.0 10.0 0.00 0.00 0.00 90 1019.3
20260831131524 78 128 7.0 11.0 0.00 0.00 0.00 93 1019.3
20260831130519 77 132 8.0 10.0 0.00 0.00 0.00 97 1019.4
20260831125534 76 128 8.0 10.0 0.00 0.00 0.00 97 1019.4
20260831124534 75 130 8.0 10.0 0.00 0.00 0.00 97 1019.4
20260831123525 75 128 8.0 10.0 0.00 0.00 0.00 97 1019.4
20260831122520 75 130 8.0 10.0 0.00 0.00 0.00 97 1019.3
20260831121535 74 131 9.0 11.0 0.00 0.00 0.00 97 1019.3
20260831120531 74 133 8.0 10.0 0.00 0.00 0.00 97 1019.1
20260831115525 74 130 9.0 10.0 0.00 0.00 0.00 97 1019.1
20260831114520 74 132 9.0 11.0 0.00 0.00 0.00 97 1019.1
20260831113536 74 132 9.0 10.0 0.00 0.01 0.00 97 1018.9
20260831112531 74 133 8.0 10.0 0.00 0.02 0.00 97 1018.9
20260831111526 74 130 8.0 11.0 0.00 0.02 0.00 97 1018.9
20260831110521 74 129 8.0 10.0 0.00 0.02 0.00 97 1018.8
20260831105516 74 135 8.0 10.0 0.00 0.02 0.00 97 1018.8
20260831104532 74 138 9.0 10.0 0.00 0.02 0.00 97 1018.8
20260831103527 74 127 7.0 9.0 0.00 0.02 0.00 97 1018.9
20260831102522 74 133 8.0 10.0 0.00 0.02 0.00 97 1018.9
20260831101518 74 116 6.0 8.0 0.00 0.02 0.00 97 1018.7
20260831100532 74 135 8.0 9.0 0.00 0.02 0.00 97 1018.5
20260831095527 75 134 8.0 10.0 0.00 0.02 0.00 97 1018.4
20260831094522 74 139 9.0 11.0 0.00 0.02 0.00 97 1018.2
20260831093517 75 129 7.0 10.0 0.00 0.02 0.00 97 1018.1
20260831092532 75 137 8.0 10.0 0.00 0.02 0.00 97 1018.2
20260831091527 74 136 9.0 11.0 0.00 0.02 0.00 97 1018.1
20260831090522 74 137 8.0 10.0 0.00 0.02 0.00 97 1018.0
20260831085517 74 144 9.0 11.0 0.00 0.02 0.00 97 1018.0
20260831084532 74 132 8.0 9.0 0.00 0.02 0.00 97 1017.9
20260831083528 74 126 7.0 9.0 0.00 0.02 0.00 97 1018.0
20260831082523 74 136 9.0 11.0 0.00 0.02 0.00 97 1017.9
20260831081518 74 135 9.0 10.0 0.00 0.02 0.00 97 1018.1
20260831080534 74 130 9.0 10.0 0.00 0.02 0.00 97 1018.1
20260831075529 75 133 9.0 10.0 0.00 0.02 0.00 97 1018.2
20260831074524 75 131 9.0 10.0 0.00 0.02 0.00 97 1018.3
20260831073519 75 132 9.0 10.0 0.00 0.02 0.00 97 1018.4
20260831072534 75 129 9.0 10.0 0.00 0.02 0.00 97 1018.5
20260831071530 75 130 9.0 9.0 0.00 0.02 0.00 97 1018.4
20260831070525 75 126 8.0 9.0 0.00 0.02 0.00 97 1018.5
20260831065520 75 128 9.0 10.0 0.00 0.02 0.00 97 1018.6
20260831064535 75 127 9.0 10.0 0.00 0.02 0.00 97 1018.6